TimeCDT,TemperatureF,Dew PointF,Humidity,Sea Level PressureIn,VisibilityMPH,Wind Direction,Wind SpeedMPH,Gust SpeedMPH,PrecipitationIn,Events,Conditions,WindDirDegrees,DateUTC
12:15 AM,78.3,75.9,92,30.05,7.0,Calm,Calm,-,N/A,,Clear,0,2013-07-26 05:15:00
12:35 AM,79.3,76.1,90,30.04,7.0,Calm,Calm,-,N/A,,Clear,0,2013-07-26 05:35:00
12:55 AM,79.2,76.6,92,30.03,7.0,Calm,Calm,-,N/A,,Clear,0,2013-07-26 05:55:00
1:15 AM,80.1,75.7,87,30.04,10.0,Calm,Calm,-,N/A,,Clear,0,2013-07-26 06:15:00
1:35 AM,78.4,75.9,92,30.04,7.0,Calm,Calm,-,N/A,,Clear,0,2013-07-26 06:35:00
1:55 AM,78.3,76.3,94,30.04,7.0,Calm,Calm,-,N/A,,Clear,0,2013-07-26 06:55:00
2:15 AM,77.4,76.1,96,30.04,5.0,Calm,Calm,-,N/A,,Clear,0,2013-07-26 07:15:00
2:35 AM,77.2,76.1,96,30.03,5.0,Calm,Calm,-,N/A,,Clear,0,2013-07-26 07:35:00
2:55 AM,77.0,76.1,97,30.03,5.0,SSE,3.5,-,N/A,,Clear,150,2013-07-26 07:55:00
3:15 AM,76.5,75.6,97,30.03,5.0,SSE,4.6,-,N/A,,Clear,160,2013-07-26 08:15:00
3:35 AM,75.7,75.0,98,30.03,5.0,Calm,Calm,-,N/A,,Clear,0,2013-07-26 08:35:00
3:55 AM,77.0,76.1,97,30.03,5.0,Calm,Calm,-,N/A,,Clear,0,2013-07-26 08:55:00
4:15 AM,76.6,75.7,97,30.03,5.0,Calm,Calm,-,N/A,,Clear,0,2013-07-26 09:15:00
4:35 AM,76.8,75.9,97,30.03,5.0,Calm,Calm,-,N/A,,Clear,0,2013-07-26 09:35:00
4:55 AM,76.5,75.6,97,30.04,5.0,Calm,Calm,-,N/A,,Clear,0,2013-07-26 09:55:00
5:15 AM,75.7,75.2,98,30.05,4.0,Calm,Calm,-,N/A,,Clear,0,2013-07-26 10:15:00
5:35 AM,75.7,75.2,98,30.05,3.0,Calm,Calm,-,N/A,,Clear,0,2013-07-26 10:35:00
5:55 AM,75.2,74.7,98,30.05,2.5,Calm,Calm,-,N/A,,Clear,0,2013-07-26 10:55:00
6:00 AM,75.2,75.2,100,30.05,7.0,Calm,Calm,-,N/A,,Mostly Cloudy,0,2013-07-26 11:00:00
6:15 AM,75.6,75.2,99,30.05,2.5,Calm,Calm,-,N/A,,Clear,0,2013-07-26 11:15:00
6:35 AM,75.2,74.8,99,30.05,2.5,Calm,Calm,-,N/A,,Scattered Clouds,0,2013-07-26 11:35:00
6:55 AM,75.2,75.2,100,30.05,7.0,Calm,Calm,-,N/A,,Mostly Cloudy,0,2013-07-26 11:55:00
7:50 AM,78.8,78.8,100,30.07,7.0,Calm,Calm,-,N/A,,Scattered Clouds,0,2013-07-26 12:50:00
8:45 AM,82.4,77.0,84,30.07,10.0,Calm,Calm,-,N/A,,Scattered Clouds,0,2013-07-26 13:45:00
9:58 AM,86.0,73.4,66,30.06,10.0,SW,5.8,-,N/A,,Mostly Cloudy,220,2013-07-26 14:58:00
10:55 AM,87.8,73.4,62,30.05,10.0,West,4.6,-,N/A,,Mostly Cloudy,260,2013-07-26 15:55:00
11:50 AM,89.6,71.6,55,30.06,10.0,WSW,8.1,-,N/A,,Mostly Cloudy,250,2013-07-26 16:50:00
12:50 PM,91.4,69.8,49,30.04,10.0,WSW,9.2,-,N/A,,Mostly Cloudy,250,2013-07-26 17:50:00
1:50 PM,91.4,68.0,46,30.02,10.0,SSW,8.1,-,N/A,,Scattered Clouds,200,2013-07-26 18:50:00
2:50 PM,91.4,69.8,49,30.00,10.0,SSW,9.2,-,N/A,,Scattered Clouds,210,2013-07-26 19:50:00
3:50 PM,93.2,71.6,49,29.99,10.0,South,10.4,-,N/A,,Scattered Clouds,190,2013-07-26 20:50:00
4:50 PM,91.4,71.6,52,29.98,10.0,South,12.7,-,N/A,,Scattered Clouds,180,2013-07-26 21:50:00
5:59 PM,89.6,71.6,55,29.96,10.0,South,16.1,-,N/A,,Scattered Clouds,190,2013-07-26 22:59:00
6:50 PM,87.8,71.6,58,29.96,10.0,SSW,15.0,-,N/A,,Partly Cloudy,200,2013-07-26 23:50:00
7:50 PM,84.2,73.4,70,29.95,10.0,South,10.4,-,N/A,,Clear,190,2013-07-27 00:50:00
8:50 PM,82.4,73.4,74,29.95,10.0,South,9.2,-,N/A,,Clear,190,2013-07-27 01:50:00
9:47 PM,82.4,73.4,74,29.96,10.0,South,6.9,-,N/A,,Clear,190,2013-07-27 02:47:00
11:15 PM,81.7,73.4,76,29.96,10.0,SSW,9.2,-,N/A,,Clear,200,2013-07-27 04:15:00
11:35 PM,81.9,73.4,75,29.96,10.0,SSW,6.9,-,N/A,,Clear,200,2013-07-27 04:35:00
11:55 PM,81.9,73.6,76,29.97,10.0,SW,3.5,-,N/A,,Scattered Clouds,220,2013-07-27 04:55:00